STARLINK-1738, 46336

Orbit data source: Space-Track

STARLINK-1738, 46336 is a payload satellite owned by SpaceX/Seattle (US) in LEO that was launched on Thu, 03 Sep 2020 UTC via an FALCON 9 launch vehicle from the Air Force Eastern Test Range (AFETR). Payload-class satellites include a variety of spacecraft equipped with specific instruments for various scientific and technological missions. These include communications satellites like Starlink; space stations such as the ISS; scientific satellites like the Hubble; Earth observation satellites from companies like Planet Labs, Umbra, and HawkEye 360; GPS; miniature CubeSats for education and research; and military/defense satellites.

Loading next visibility...
Identifier
46336, 2020-062M
Orbit
LEO
Country
Flag of USUS
Related business
Manufacturer
SpaceX/Seattle
Mission
Partially operational Commercial Communications
Bus & Motor
STARLINK, Unknown motor
Mass
260 kg wet, ~248 kg dry
Launch date (UTC)
2020-09-03 (5 years ago)
Launch vehicle
FALCON 9
Launch site
Air Force Eastern Test Range (AFETR)
Object type
Payload
Rocket body
Debris
Shape & HBR
Box + 1 Pan, 4.4 m
Radar Cross Section
13.562 m², Large (>1 m²)

Expand to show TLE details & history
Last TLE update: 14 hours ago

TLE from 14 hours ago
0 STARLINK-1738
1 46336U 20062M   25258.71461916  .00137124  00000-0  38069-2 0  9995
2 46336  53.0523  52.1019 0007055 236.7366 123.2960 15.35900554278355
Epoch: 2025-09-15T17:09Z
TLE epoch observation values (Epoch: 2025-09-15T17:09:03.095Z)
Latitude
-0.00004°
Longitude
159.92367°
Altitude
461.787 km
Speed
7.635 km/s
True Right ascension
03h 28m 24s
True Declination
0° 00' 00"
Sunlit
Object was in full shadow at epoch
Visualization orbit readout
Latitude
Unknown
Longitude
Unknown
Altitude
Unknown
Speed
Unknown
Apparent Right ascension
Unknown
Apparent Declination
Unknown
Sunlit
N/A
Visualization observer readout
Local Sidereal Time
23:23:35
Azimuth
Unknown
Elevation
Unknown
Doppler factor
Unknown
Orbital elements
Apogee altitude
463.345 km
Perigee altitude
453.698 km
Semi-major axis
6,836.658 km
Eccentricity
0.00071
Inclination
53.0523°
RAAN
52.1019°
Arg. of periapsis
236.7366°
True anomaly
123.36354°
Mean anomaly
123.296°
Eccentric anomaly
123.32977°
Mean motion
3.83952 °/min
Orbital period
93.76 mins
BSTAR
0.0038069
Loading maneuver chart data...
Computing Atmospheric mass density...
Loading historical data...
Loading historical data...
Loading historical data...
Loading historical data...
Loading historical data...
Loading historical data...
Loading historical data...

Documentation

Showing up to 5 results
|